Time,TemperatureF,DewpointF,PressureIn,WindDirection,WindDirectionDegrees,WindSpeedMPH,WindSpeedGustMPH,Humidity,HourlyPrecipIn,Conditions,Clouds,dailyrainin,SoftwareType,DateUTC
2013-04-09 00:00:00,37.0,32.0,29.80,North,360,4.0,4.0,84,0.00,,,0.00,Rainwise IP-100,2013-04-09 04:00:00,
2013-04-09 00:01:00,37.0,32.0,29.80,North,360,2.0,4.0,84,0.00,,,0.00,Rainwise IP-100,2013-04-09 04:01:00,
2013-04-09 00:05:00,37.0,32.0,29.80,North,360,3.0,4.0,84,0.00,,,0.00,Rainwise IP-100,2013-04-09 04:05:00,
2013-04-09 00:06:00,37.0,32.0,29.80,North,360,3.0,3.0,84,0.00,,,0.00,Rainwise IP-100,2013-04-09 04:06:00,
2013-04-09 00:09:00,37.0,32.0,29.80,North,360,1.0,5.0,84,0.00,,,0.00,Rainwise IP-100,2013-04-09 04:09:00,
2013-04-09 00:11:00,37.0,32.0,29.81,North,360,0.0,5.0,83,0.00,,,0.00,Rainwise IP-100,2013-04-09 04:11:00,
2013-04-09 00:14:00,37.0,32.0,29.81,North,360,0.0,4.0,83,0.00,,,0.00,Rainwise IP-100,2013-04-09 04:14:00,
2013-04-09 00:16:00,37.0,32.0,29.81,North,360,3.0,3.0,82,0.00,,,0.00,Rainwise IP-100,2013-04-09 04:16:00,
2013-04-09 00:19:00,37.0,32.0,29.81,North,360,3.0,3.0,82,0.00,,,0.00,Rainwise IP-100,2013-04-09 04:19:00,
2013-04-09 00:21:00,37.0,32.0,29.80,North,360,2.0,3.0,82,0.00,,,0.00,Rainwise IP-100,2013-04-09 04:21:00,
2013-04-09 00:24:00,36.0,31.0,29.80,North,360,2.0,3.0,83,0.00,,,0.00,Rainwise IP-100,2013-04-09 04:24:00,
2013-04-09 00:26:00,36.0,32.0,29.80,North,360,1.0,3.0,84,0.00,,,0.00,Rainwise IP-100,2013-04-09 04:26:00,
2013-04-09 00:31:00,36.0,31.0,29.79,North,360,2.0,3.0,82,0.00,,,0.00,Rainwise IP-100,2013-04-09 04:31:00,
2013-04-09 00:34:00,36.0,31.0,29.79,North,360,0.0,3.0,83,0.00,,,0.00,Rainwise IP-100,2013-04-09 04:34:00,
2013-04-09 00:36:00,35.0,31.0,29.79,North,360,0.0,2.0,83,0.00,,,0.00,Rainwise IP-100,2013-04-09 04:36:00,
2013-04-09 00:39:00,35.0,31.0,29.79,North,360,0.0,0.0,84,0.00,,,0.00,Rainwise IP-100,2013-04-09 04:39:00,
2013-04-09 00:41:00,35.0,31.0,29.79,North,360,0.0,0.0,83,0.00,,,0.00,Rainwise IP-100,2013-04-09 04:41:00,
2013-04-09 00:44:00,35.0,31.0,29.79,North,360,0.0,0.0,84,0.00,,,0.00,Rainwise IP-100,2013-04-09 04:44:00,
2013-04-09 00:46:00,35.0,31.0,29.79,North,360,0.0,0.0,84,0.00,,,0.00,Rainwise IP-100,2013-04-09 04:46:00,
2013-04-09 00:49:00,35.0,31.0,29.79,North,360,0.0,0.0,84,0.00,,,0.00,Rainwise IP-100,2013-04-09 04:49:00,
2013-04-09 00:51:00,35.0,31.0,29.79,North,360,0.0,0.0,84,0.00,,,0.00,Rainwise IP-100,2013-04-09 04:51:00,
2013-04-09 00:52:00,35.0,31.0,29.79,North,360,0.0,0.0,84,0.00,,,0.00,Rainwise IP-100,2013-04-09 04:52:00,
2013-04-09 00:53:00,35.0,31.0,29.79,North,360,0.0,0.0,84,0.00,,,0.00,Rainwise IP-100,2013-04-09 04:53:00,
2013-04-09 00:56:00,35.0,32.0,29.78,North,360,2.0,2.0,88,0.00,,,0.00,Rainwise IP-100,2013-04-09 04:56:00,
2013-04-09 01:01:00,35.0,31.0,29.78,North,360,2.0,2.0,86,0.00,,,0.00,Rainwise IP-100,2013-04-09 05:01:00,
2013-04-09 01:06:00,35.0,31.0,29.78,North,360,2.0,3.0,87,0.00,,,0.00,Rainwise IP-100,2013-04-09 05:06:00,
2013-04-09 01:11:00,35.0,31.0,29.78,North,360,3.0,3.0,87,0.00,,,0.00,Rainwise IP-100,2013-04-09 05:11:00,
2013-04-09 01:14:00,35.0,31.0,29.78,North,360,1.0,3.0,87,0.00,,,0.00,Rainwise IP-100,2013-04-09 05:14:00,
2013-04-09 01:16:00,35.0,31.0,29.78,North,360,1.0,3.0,87,0.00,,,0.00,Rainwise IP-100,2013-04-09 05:16:00,
2013-04-09 01:21:00,35.0,31.0,29.77,North,360,3.0,4.0,86,0.00,,,0.00,Rainwise IP-100,2013-04-09 05:21:00,
2013-04-09 01:26:00,35.0,31.0,29.77,West,270,0.0,4.0,87,0.00,,,0.00,Rainwise IP-100,2013-04-09 05:26:00,
2013-04-09 01:31:00,34.0,31.0,29.77,NE,45,4.0,4.0,87,0.00,,,0.00,Rainwise IP-100,2013-04-09 05:31:00,
2013-04-09 01:36:00,35.0,32.0,29.76,West,270,6.0,6.0,89,0.00,,,0.00,Rainwise IP-100,2013-04-09 05:36:00,
2013-04-09 01:39:00,34.0,32.0,29.76,West,270,3.0,7.0,89,0.00,,,0.00,Rainwise IP-100,2013-04-09 05:39:00,
2013-04-09 01:41:00,34.0,31.0,29.76,North,360,2.0,7.0,87,0.00,,,0.00,Rainwise IP-100,2013-04-09 05:41:00,
2013-04-09 01:46:00,34.0,32.0,29.76,North,360,2.0,3.0,89,0.00,,,0.00,Rainwise IP-100,2013-04-09 05:46:00,
2013-04-09 01:47:00,34.0,32.0,29.76,North,360,2.0,3.0,89,0.00,,,0.00,Rainwise IP-100,2013-04-09 05:47:00,
2013-04-09 01:51:00,34.0,32.0,29.76,North,360,1.0,2.0,89,0.00,,,0.00,Rainwise IP-100,2013-04-09 05:51:00,
2013-04-09 01:56:00,34.0,32.0,29.75,North,360,0.0,2.0,89,0.00,,,0.00,Rainwise IP-100,2013-04-09 05:56:00,
2013-04-09 02:01:00,34.0,32.0,29.75,South,180,3.0,3.0,89,0.00,,,0.00,Rainwise IP-100,2013-04-09 06:01:00,
2013-04-09 02:06:00,34.0,32.0,29.75,South,180,0.0,3.0,90,0.00,,,0.00,Rainwise IP-100,2013-04-09 06:06:00,
2013-04-09 02:11:00,34.0,32.0,29.75,West,270,0.0,4.0,90,0.00,,,0.00,Rainwise IP-100,2013-04-09 06:11:00,
2013-04-09 02:16:00,34.0,32.0,29.75,West,270,0.0,0.0,90,0.00,,,0.00,Rainwise IP-100,2013-04-09 06:16:00,
2013-04-09 02:21:00,34.0,32.0,29.74,East,90,3.0,3.0,91,0.00,,,0.00,Rainwise IP-100,2013-04-09 06:21:00,
2013-04-09 02:24:00,35.0,32.0,29.74,SE,135,2.0,5.0,91,0.00,,,0.00,Rainwise IP-100,2013-04-09 06:24:00,
2013-04-09 02:26:00,35.0,32.0,29.74,SE,135,0.0,5.0,91,0.00,,,0.00,Rainwise IP-100,2013-04-09 06:26:00,
2013-04-09 02:31:00,34.0,32.0,29.74,SE,135,2.0,2.0,91,0.00,,,0.00,Rainwise IP-100,2013-04-09 06:31:00,
2013-04-09 02:34:00,34.0,32.0,29.74,SE,135,3.0,3.0,91,0.00,,,0.00,Rainwise IP-100,2013-04-09 06:34:00,
2013-04-09 02:36:00,34.0,32.0,29.74,SE,135,1.0,3.0,91,0.00,,,0.00,Rainwise IP-100,2013-04-09 06:36:00,
2013-04-09 02:39:00,34.0,32.0,29.74,SE,135,0.0,3.0,92,0.00,,,0.00,Rainwise IP-100,2013-04-09 06:39:00,
2013-04-09 02:41:00,34.0,32.0,29.74,SE,135,0.0,3.0,91,0.00,,,0.00,Rainwise IP-100,2013-04-09 06:41:00,
2013-04-09 02:44:00,34.0,32.0,29.74,SE,135,0.0,0.0,92,0.00,,,0.00,Rainwise IP-100,2013-04-09 06:44:00,
2013-04-09 02:46:00,34.0,32.0,29.74,SE,135,0.0,0.0,92,0.00,,,0.00,Rainwise IP-100,2013-04-09 06:46:00,
2013-04-09 02:51:00,34.0,32.0,29.73,SE,135,0.0,0.0,92,0.00,,,0.00,Rainwise IP-100,2013-04-09 06:51:00,
2013-04-09 02:54:00,34.0,32.0,29.73,SE,135,1.0,2.0,92,0.00,,,0.00,Rainwise IP-100,2013-04-09 06:54:00,
2013-04-09 02:59:00,35.0,32.0,29.73,SE,135,0.0,3.0,92,0.00,,,0.00,Rainwise IP-100,2013-04-09 06:59:00,
2013-04-09 03:04:00,35.0,33.0,29.74,SE,135,0.0,0.0,93,0.00,,,0.00,Rainwise IP-100,2013-04-09 07:04:00,
2013-04-09 03:09:00,35.0,33.0,29.74,ESE,112,3.0,3.0,93,0.00,,,0.00,Rainwise IP-100,2013-04-09 07:09:00,
2013-04-09 03:10:00,35.0,33.0,29.74,ESE,112,3.0,3.0,93,0.00,,,0.00,Rainwise IP-100,2013-04-09 07:10:00,
2013-04-09 03:11:00,35.0,33.0,29.73,ESE,112,2.0,3.0,93,0.00,,,0.00,Rainwise IP-100,2013-04-09 07:11:00,
2013-04-09 03:15:00,35.0,33.0,29.73,SSE,157,3.0,4.0,93,0.00,,,0.00,Rainwise IP-100,2013-04-09 07:15:00,
2013-04-09 03:20:00,35.0,33.0,29.73,SSE,157,3.0,4.0,93,0.00,,,0.00,Rainwise IP-100,2013-04-09 07:20:00,
2013-04-09 03:21:00,35.0,33.0,29.73,SSE,157,3.0,4.0,93,0.00,,,0.00,Rainwise IP-100,2013-04-09 07:21:00,
2013-04-09 03:26:00,35.0,33.0,29.73,SSE,157,0.0,3.0,93,0.00,,,0.00,Rainwise IP-100,2013-04-09 07:26:00,
2013-04-09 03:31:00,35.0,32.0,29.73,SE,135,1.0,3.0,92,0.00,,,0.00,Rainwise IP-100,2013-04-09 07:31:00,
2013-04-09 03:34:00,34.0,33.0,29.73,SE,135,1.0,3.0,93,0.00,,,0.00,Rainwise IP-100,2013-04-09 07:34:00,
2013-04-09 03:36:00,34.0,33.0,29.73,SE,135,3.0,3.0,93,0.00,,,0.00,Rainwise IP-100,2013-04-09 07:36:00,
2013-04-09 03:41:00,35.0,33.0,29.73,ESE,112,3.0,5.0,93,0.00,,,0.00,Rainwise IP-100,2013-04-09 07:41:00,
2013-04-09 03:44:00,35.0,33.0,29.73,ESE,112,0.0,5.0,93,0.00,,,0.00,Rainwise IP-100,2013-04-09 07:44:00,
2013-04-09 03:46:00,35.0,33.0,29.73,SSW,202,5.0,5.0,93,0.00,,,0.00,Rainwise IP-100,2013-04-09 07:46:00,
2013-04-09 03:49:00,35.0,33.0,29.73,SSW,202,4.0,5.0,93,0.00,,,0.00,Rainwise IP-100,2013-04-09 07:49:00,
2013-04-09 03:51:00,36.0,35.0,29.73,South,180,2.0,5.0,93,0.00,,,0.00,Rainwise IP-100,2013-04-09 07:51:00,
2013-04-09 03:56:00,36.0,35.0,29.73,SE,135,0.0,4.0,93,0.00,,,0.00,Rainwise IP-100,2013-04-09 07:56:00,
2013-04-09 03:59:00,36.0,35.0,29.73,SE,135,3.0,3.0,93,0.00,,,0.00,Rainwise IP-100,2013-04-09 07:59:00,
2013-04-09 04:01:00,36.0,33.0,29.72,ESE,112,2.0,4.0,92,0.00,,,0.00,Rainwise IP-100,2013-04-09 08:01:00,
2013-04-09 04:04:00,37.0,35.0,29.72,ESE,112,5.0,6.0,91,0.00,,,0.00,Rainwise IP-100,2013-04-09 08:04:00,
2013-04-09 04:09:00,38.0,35.0,29.72,ESE,112,1.0,6.0,88,0.00,,,0.00,Rainwise IP-100,2013-04-09 08:09:00,
2013-04-09 04:14:00,38.0,35.0,29.72,SSE,157,3.0,4.0,87,0.00,,,0.00,Rainwise IP-100,2013-04-09 08:14:00,
2013-04-09 04:16:00,38.0,35.0,29.72,SE,135,4.0,5.0,86,0.00,,,0.00,Rainwise IP-100,2013-04-09 08:16:00,
2013-04-09 04:21:00,38.0,35.0,29.72,South,180,2.0,6.0,86,0.00,,,0.00,Rainwise IP-100,2013-04-09 08:21:00,
2013-04-09 04:26:00,37.0,33.0,29.72,South,180,2.0,4.0,87,0.00,,,0.00,Rainwise IP-100,2013-04-09 08:26:00,
2013-04-09 04:29:00,37.0,33.0,29.72,SSE,157,3.0,4.0,87,0.00,,,0.00,Rainwise IP-100,2013-04-09 08:29:00,
2013-04-09 04:31:00,37.0,33.0,29.72,SSE,157,3.0,4.0,87,0.00,,,0.00,Rainwise IP-100,2013-04-09 08:31:00,
2013-04-09 04:36:00,37.0,35.0,29.72,SE,135,4.0,5.0,89,0.00,,,0.00,Rainwise IP-100,2013-04-09 08:36:00,
2013-04-09 04:41:00,37.0,35.0,29.71,SSE,157,4.0,5.0,90,0.00,,,0.00,Rainwise IP-100,2013-04-09 08:41:00,
2013-04-09 04:46:00,37.0,35.0,29.71,SE,135,3.0,4.0,90,0.00,,,0.00,Rainwise IP-100,2013-04-09 08:46:00,
2013-04-09 04:51:00,37.0,35.0,29.71,SSE,157,4.0,4.0,90,0.00,,,0.00,Rainwise IP-100,2013-04-09 08:51:00,
2013-04-09 04:56:00,37.0,35.0,29.71,SSE,157,3.0,5.0,90,0.00,,,0.00,Rainwise IP-100,2013-04-09 08:56:00,
2013-04-09 04:59:00,37.0,35.0,29.71,SSE,157,3.0,4.0,89,0.00,,,0.00,Rainwise IP-100,2013-04-09 08:59:00,
2013-04-09 05:01:00,37.0,35.0,29.71,SSE,157,2.0,4.0,89,0.00,,,0.00,Rainwise IP-100,2013-04-09 09:01:00,
2013-04-09 05:03:00,38.0,35.0,29.71,SE,135,3.0,4.0,88,0.00,,,0.00,Rainwise IP-100,2013-04-09 09:03:00,
2013-04-09 05:04:00,38.0,35.0,29.71,SE,135,5.0,5.0,88,0.00,,,0.00,Rainwise IP-100,2013-04-09 09:04:00,
2013-04-09 05:09:00,38.0,35.0,29.71,East,90,2.0,5.0,87,0.00,,,0.00,Rainwise IP-100,2013-04-09 09:09:00,
2013-04-09 05:11:00,38.0,35.0,29.71,East,90,3.0,4.0,87,0.00,,,0.00,Rainwise IP-100,2013-04-09 09:11:00,
2013-04-09 05:14:00,38.0,35.0,29.71,East,90,3.0,4.0,87,0.00,,,0.00,Rainwise IP-100,2013-04-09 09:14:00,
2013-04-09 05:19:00,38.0,35.0,29.72,West,270,3.0,4.0,86,0.00,,,0.00,Rainwise IP-100,2013-04-09 09:19:00,
2013-04-09 05:22:00,39.0,35.0,29.74,West,270,3.0,4.0,85,0.00,,,0.00,Rainwise IP-100,2013-04-09 09:22:00,
2013-04-09 05:24:00,38.0,35.0,29.74,West,270,3.0,4.0,85,0.00,,,0.00,Rainwise IP-100,2013-04-09 09:24:00,
2013-04-09 05:29:00,38.0,35.0,29.74,West,270,3.0,4.0,85,0.00,,,0.00,Rainwise IP-100,2013-04-09 09:29:00,
2013-04-09 05:31:00,38.0,35.0,29.74,West,270,3.0,4.0,85,0.00,,,0.00,Rainwise IP-100,2013-04-09 09:31:00,
2013-04-09 05:36:00,38.0,35.0,29.75,West,270,0.0,3.0,85,0.00,,,0.00,Rainwise IP-100,2013-04-09 09:36:00,
2013-04-09 05:41:00,38.0,35.0,29.76,West,270,0.0,2.0,85,0.00,,,0.00,Rainwise IP-100,2013-04-09 09:41:00,
2013-04-09 05:46:00,38.0,35.0,29.76,West,270,0.0,0.0,86,0.00,,,0.00,Rainwise IP-100,2013-04-09 09:46:00,
2013-04-09 05:49:00,38.0,35.0,29.76,West,270,0.0,0.0,86,0.00,,,0.00,Rainwise IP-100,2013-04-09 09:49:00,
2013-04-09 05:54:00,38.0,35.0,29.74,West,270,2.0,2.0,89,0.00,,,0.00,Rainwise IP-100,2013-04-09 09:54:00,
2013-04-09 05:59:00,37.0,35.0,29.74,East,90,3.0,4.0,91,0.00,,,0.00,Rainwise IP-100,2013-04-09 09:59:00,
2013-04-09 06:01:00,37.0,35.0,29.74,East,90,3.0,3.0,91,0.00,,,0.00,Rainwise IP-100,2013-04-09 10:01:00,
2013-04-09 06:04:00,37.0,35.0,29.74,East,90,3.0,3.0,91,0.00,,,0.00,Rainwise IP-100,2013-04-09 10:04:00,
2013-04-09 06:09:00,37.0,35.0,29.74,East,90,3.0,3.0,91,0.00,,,0.00,Rainwise IP-100,2013-04-09 10:09:00,
2013-04-09 06:21:00,37.0,35.0,29.74,SSE,157,0.0,3.0,93,0.00,,,0.03,Rainwise IP-100,2013-04-09 10:21:00,
2013-04-09 06:24:00,37.0,35.0,29.74,SSE,157,0.0,3.0,93,0.18,,,0.03,Rainwise IP-100,2013-04-09 10:24:00,
2013-04-09 06:26:00,37.0,35.0,29.74,SSE,157,0.0,3.0,93,0.18,,,0.03,Rainwise IP-100,2013-04-09 10:26:00,
2013-04-09 06:29:00,37.0,35.0,29.74,SSE,157,0.0,0.0,93,0.18,,,0.03,Rainwise IP-100,2013-04-09 10:29:00,
2013-04-09 06:31:00,37.0,35.0,29.74,SSE,157,0.0,0.0,93,0.18,,,0.03,Rainwise IP-100,2013-04-09 10:31:00,
2013-04-09 06:36:00,37.0,35.0,29.74,SSE,157,0.0,0.0,93,0.00,,,0.03,Rainwise IP-100,2013-04-09 10:36:00,
2013-04-09 06:50:00,37.0,37.0,29.72,ESE,112,3.0,0.0,98,0.00,,,0.06,Rainwise IP-100,2013-04-09 10:50:00,
2013-04-09 06:51:00,37.0,36.0,29.71,ESE,112,2.0,3.0,97,0.18,,,0.06,Rainwise IP-100,2013-04-09 10:51:00,
2013-04-09 06:55:00,37.0,37.0,29.71,SE,135,4.0,5.0,98,0.24,,,0.07,Rainwise IP-100,2013-04-09 10:55:00,
2013-04-09 06:59:00,37.0,37.0,29.71,SE,135,5.0,6.0,98,0.24,,,0.07,Rainwise IP-100,2013-04-09 10:59:00,
2013-04-09 07:13:00,37.0,37.0,29.69,ESE,112,6.0,6.0,99,0.00,,,0.09,Rainwise IP-100,2013-04-09 11:13:00,
2013-04-09 07:16:00,37.0,37.0,29.69,ESE,112,4.0,7.0,99,0.12,,,0.09,Rainwise IP-100,2013-04-09 11:16:00,
2013-04-09 07:44:00,38.0,38.0,29.70,ESE,112,5.0,6.0,100,0.00,,,0.16,Rainwise IP-100,2013-04-09 11:44:00,
2013-04-09 07:46:00,38.0,38.0,29.70,SE,135,5.0,9.0,100,0.42,,,0.16,Rainwise IP-100,2013-04-09 11:46:00,
2013-04-09 07:49:00,38.0,38.0,29.70,SE,135,7.0,9.0,100,0.42,,,0.16,Rainwise IP-100,2013-04-09 11:49:00,
2013-04-09 07:52:00,38.0,38.0,29.70,SE,135,7.0,9.0,100,0.42,,,0.16,Rainwise IP-100,2013-04-09 11:52:00,
2013-04-09 07:54:00,38.0,38.0,29.70,SE,135,7.0,7.0,100,0.42,,,0.16,Rainwise IP-100,2013-04-09 11:54:00,
2013-04-09 07:59:00,39.0,39.0,29.67,SE,135,5.0,7.0,99,0.24,,,0.20,Rainwise IP-100,2013-04-09 11:59:00,
2013-04-09 08:01:00,39.0,39.0,29.67,ESE,112,4.0,7.0,99,0.24,,,0.20,Rainwise IP-100,2013-04-09 12:01:00,
2013-04-09 08:06:00,39.0,39.0,29.66,SE,135,3.0,6.0,99,0.30,,,0.21,Rainwise IP-100,2013-04-09 12:06:00,
2013-04-09 08:09:00,39.0,39.0,29.66,SE,135,3.0,6.0,99,0.06,,,0.21,Rainwise IP-100,2013-04-09 12:09:00,
2013-04-09 08:26:00,40.0,40.0,29.67,SSE,157,1.0,6.0,99,0.00,,,0.23,Rainwise IP-100,2013-04-09 12:26:00,
2013-04-09 08:29:00,40.0,40.0,29.67,SE,135,2.0,6.0,99,0.12,,,0.23,Rainwise IP-100,2013-04-09 12:29:00,
2013-04-09 08:31:00,40.0,40.0,29.67,SE,135,3.0,9.0,99,0.12,,,0.23,Rainwise IP-100,2013-04-09 12:31:00,
2013-04-09 08:34:00,40.0,40.0,29.67,ESE,112,4.0,9.0,99,0.12,,,0.23,Rainwise IP-100,2013-04-09 12:34:00,
2013-04-09 08:36:00,40.0,40.0,29.67,ESE,112,4.0,7.0,99,0.12,,,0.23,Rainwise IP-100,2013-04-09 12:36:00,
2013-04-09 08:39:00,40.0,40.0,29.67,SE,135,4.0,7.0,99,0.00,,,0.23,Rainwise IP-100,2013-04-09 12:39:00,
2013-04-09 08:44:00,40.0,40.0,29.67,SE,135,6.0,6.0,99,0.00,,,0.23,Rainwise IP-100,2013-04-09 12:44:00,
2013-04-09 08:46:00,40.0,40.0,29.67,SE,135,5.0,8.0,99,0.00,,,0.23,Rainwise IP-100,2013-04-09 12:46:00,
2013-04-09 08:49:00,40.0,40.0,29.67,ESE,112,3.0,8.0,99,0.00,,,0.23,Rainwise IP-100,2013-04-09 12:49:00,
2013-04-09 08:54:00,40.0,40.0,29.67,SE,135,6.0,8.0,99,0.00,,,0.23,Rainwise IP-100,2013-04-09 12:54:00,
2013-04-09 08:59:00,40.0,40.0,29.67,South,180,3.0,9.0,99,0.00,,,0.23,Rainwise IP-100,2013-04-09 12:59:00,
2013-04-09 09:04:00,40.0,40.0,29.65,SSE,157,9.0,10.0,99,0.00,,,0.23,Rainwise IP-100,2013-04-09 13:04:00,
2013-04-09 09:06:00,41.0,41.0,29.65,SSE,157,6.0,10.0,99,0.00,,,0.23,Rainwise IP-100,2013-04-09 13:06:00,
2013-04-09 09:09:00,41.0,41.0,29.65,SE,135,3.0,10.0,99,0.00,,,0.23,Rainwise IP-100,2013-04-09 13:09:00,
2013-04-09 09:12:00,41.0,41.0,29.65,ESE,112,2.0,8.0,99,0.00,,,0.23,Rainwise IP-100,2013-04-09 13:12:00,
2013-04-09 09:17:00,41.0,41.0,29.65,ESE,112,3.0,6.0,99,0.00,,,0.23,Rainwise IP-100,2013-04-09 13:17:00,
2013-04-09 09:21:00,41.0,40.0,29.66,SE,135,4.0,8.0,97,0.00,,,0.23,Rainwise IP-100,2013-04-09 13:21:00,
2013-04-09 09:22:00,41.0,40.0,29.66,SE,135,5.0,8.0,97,0.00,,,0.23,Rainwise IP-100,2013-04-09 13:22:00,
2013-04-09 09:27:00,41.0,40.0,29.66,SSE,157,4.0,8.0,97,0.00,,,0.23,Rainwise IP-100,2013-04-09 13:27:00,
2013-04-09 09:29:00,41.0,40.0,29.66,SSE,157,4.0,6.0,97,0.00,,,0.23,Rainwise IP-100,2013-04-09 13:29:00,
2013-04-09 09:31:00,41.0,40.0,29.66,SE,135,5.0,6.0,97,0.00,,,0.24,Rainwise IP-100,2013-04-09 13:31:00,
2013-04-09 09:36:00,41.0,40.0,29.66,ENE,67,2.0,5.0,97,0.06,,,0.24,Rainwise IP-100,2013-04-09 13:36:00,
2013-04-09 09:41:00,41.0,40.0,29.67,SE,135,3.0,4.0,97,0.06,,,0.24,Rainwise IP-100,2013-04-09 13:41:00,
2013-04-09 09:46:00,41.0,40.0,29.67,East,90,3.0,6.0,97,0.00,,,0.24,Rainwise IP-100,2013-04-09 13:46:00,
2013-04-09 09:49:00,41.0,40.0,29.67,ESE,112,3.0,5.0,97,0.06,,,0.25,Rainwise IP-100,2013-04-09 13:49:00,
2013-04-09 09:51:00,41.0,40.0,29.67,ESE,112,4.0,5.0,97,0.06,,,0.25,Rainwise IP-100,2013-04-09 13:51:00,
2013-04-09 09:54:00,41.0,40.0,29.67,ESE,112,4.0,5.0,97,0.06,,,0.25,Rainwise IP-100,2013-04-09 13:54:00,
2013-04-09 09:59:00,41.0,40.0,29.67,ESE,112,8.0,9.0,98,0.06,,,0.26,Rainwise IP-100,2013-04-09 13:59:00,
2013-04-09 10:01:00,41.0,40.0,29.67,ESE,112,8.0,9.0,98,0.06,,,0.26,Rainwise IP-100,2013-04-09 14:01:00,
2013-04-09 10:06:00,41.0,40.0,29.65,ESE,112,6.0,8.0,98,0.06,,,0.26,Rainwise IP-100,2013-04-09 14:06:00,
2013-04-09 10:09:00,41.0,40.0,29.65,ESE,112,8.0,9.0,98,0.00,,,0.26,Rainwise IP-100,2013-04-09 14:09:00,
2013-04-09 10:11:00,41.0,40.0,29.65,SE,135,6.0,9.0,98,0.00,,,0.26,Rainwise IP-100,2013-04-09 14:11:00,
2013-04-09 10:16:00,41.0,40.0,29.64,SE,135,4.0,10.0,98,0.00,,,0.26,Rainwise IP-100,2013-04-09 14:16:00,
2013-04-09 10:17:00,41.0,40.0,29.64,SE,135,4.0,10.0,98,0.00,,,0.26,Rainwise IP-100,2013-04-09 14:17:00,
2013-04-09 10:21:00,41.0,40.0,29.64,SSE,157,6.0,10.0,97,0.00,,,0.26,Rainwise IP-100,2013-04-09 14:21:00,
2013-04-09 10:27:00,41.0,40.0,29.64,ESE,112,8.0,9.0,97,0.00,,,0.26,Rainwise IP-100,2013-04-09 14:27:00,
2013-04-09 10:31:00,41.0,40.0,29.64,ESE,112,4.0,11.0,97,0.00,,,0.26,Rainwise IP-100,2013-04-09 14:31:00,
2013-04-09 10:36:00,41.0,40.0,29.65,SE,135,7.0,11.0,97,0.00,,,0.26,Rainwise IP-100,2013-04-09 14:36:00,
2013-04-09 10:41:00,41.0,40.0,29.65,ESE,112,6.0,12.0,97,0.00,,,0.26,Rainwise IP-100,2013-04-09 14:41:00,
2013-04-09 10:46:00,41.0,40.0,29.64,SE,135,10.0,10.0,96,0.00,,,0.26,Rainwise IP-100,2013-04-09 14:46:00,
2013-04-09 10:47:00,41.0,40.0,29.64,SE,135,6.0,10.0,96,0.00,,,0.26,Rainwise IP-100,2013-04-09 14:47:00,
2013-04-09 10:49:00,41.0,40.0,29.64,SSE,157,4.0,10.0,96,0.00,,,0.26,Rainwise IP-100,2013-04-09 14:49:00,
2013-04-09 10:52:00,41.0,40.0,29.63,SE,135,7.0,9.0,96,0.00,,,0.26,Rainwise IP-100,2013-04-09 14:52:00,
2013-04-09 10:56:00,41.0,40.0,29.63,SE,135,7.0,10.0,96,0.00,,,0.26,Rainwise IP-100,2013-04-09 14:56:00,
2013-04-09 10:57:00,41.0,40.0,29.63,SSE,157,6.0,10.0,96,0.00,,,0.26,Rainwise IP-100,2013-04-09 14:57:00,
2013-04-09 11:02:00,41.0,40.0,29.63,ESE,112,4.0,10.0,96,0.00,,,0.26,Rainwise IP-100,2013-04-09 15:02:00,
2013-04-09 11:07:00,41.0,40.0,29.63,ESE,112,7.0,9.0,96,0.00,,,0.26,Rainwise IP-100,2013-04-09 15:07:00,
2013-04-09 11:09:00,41.0,40.0,29.63,SE,135,4.0,9.0,96,0.00,,,0.26,Rainwise IP-100,2013-04-09 15:09:00,
2013-04-09 11:11:00,41.0,40.0,29.63,SE,135,5.0,9.0,96,0.00,,,0.26,Rainwise IP-100,2013-04-09 15:11:00,
2013-04-09 11:14:00,41.0,40.0,29.62,SE,135,5.0,9.0,96,0.00,,,0.26,Rainwise IP-100,2013-04-09 15:14:00,
2013-04-09 11:19:00,41.0,40.0,29.62,SE,135,6.0,9.0,96,0.00,,,0.26,Rainwise IP-100,2013-04-09 15:19:00,
2013-04-09 11:21:00,41.0,40.0,29.62,SE,135,6.0,6.0,96,0.00,,,0.26,Rainwise IP-100,2013-04-09 15:21:00,
2013-04-09 11:26:00,41.0,40.0,29.62,SE,135,6.0,6.0,96,0.00,,,0.26,Rainwise IP-100,2013-04-09 15:26:00,
2013-04-09 11:31:00,41.0,40.0,29.62,SE,135,6.0,6.0,96,0.00,,,0.26,Rainwise IP-100,2013-04-09 15:31:00,
2013-04-09 11:39:00,42.0,41.0,29.60,SSE,157,10.0,0.0,96,0.00,,,0.26,Rainwise IP-100,2013-04-09 15:39:00,
2013-04-09 11:41:00,42.0,41.0,29.60,SE,135,6.0,10.0,96,0.00,,,0.26,Rainwise IP-100,2013-04-09 15:41:00,
2013-04-09 11:44:00,42.0,41.0,29.60,SE,135,6.0,10.0,96,0.00,,,0.26,Rainwise IP-100,2013-04-09 15:44:00,
2013-04-09 11:55:00,42.0,41.0,29.61,SSE,157,8.0,11.0,95,0.00,,,0.26,Rainwise IP-100,2013-04-09 15:55:00,
2013-04-09 12:00:00,42.0,41.0,29.61,SSE,157,6.0,10.0,95,0.00,,,0.26,Rainwise IP-100,2013-04-09 16:00:00,
2013-04-09 12:01:00,42.0,41.0,29.61,SSE,157,7.0,9.0,95,0.00,,,0.26,Rainwise IP-100,2013-04-09 16:01:00,
2013-04-09 12:05:00,42.0,41.0,29.60,SE,135,7.0,9.0,95,0.00,,,0.26,Rainwise IP-100,2013-04-09 16:05:00,
2013-04-09 12:06:00,42.0,41.0,29.60,SE,135,5.0,9.0,95,0.00,,,0.26,Rainwise IP-100,2013-04-09 16:06:00,
2013-04-09 12:11:00,42.0,41.0,29.60,SE,135,5.0,10.0,95,0.00,,,0.26,Rainwise IP-100,2013-04-09 16:11:00,
2013-04-09 12:16:00,42.0,41.0,29.60,ESE,112,3.0,9.0,95,0.00,,,0.26,Rainwise IP-100,2013-04-09 16:16:00,
2013-04-09 12:21:00,42.0,41.0,29.60,South,180,6.0,7.0,96,0.00,,,0.26,Rainwise IP-100,2013-04-09 16:21:00,
2013-04-09 12:26:00,42.0,41.0,29.62,South,180,3.0,7.0,96,0.06,,,0.27,Rainwise IP-100,2013-04-09 16:26:00,
2013-04-09 12:29:00,42.0,41.0,29.62,SE,135,3.0,6.0,96,0.12,,,0.28,Rainwise IP-100,2013-04-09 16:29:00,
2013-04-09 12:34:00,42.0,41.0,29.61,ESE,112,5.0,6.0,97,0.24,,,0.30,Rainwise IP-100,2013-04-09 16:34:00,
2013-04-09 12:39:00,42.0,41.0,29.61,ESE,112,6.0,10.0,98,0.18,,,0.31,Rainwise IP-100,2013-04-09 16:39:00,
2013-04-09 12:44:00,42.0,42.0,29.58,ESE,112,4.0,8.0,99,0.18,,,0.33,Rainwise IP-100,2013-04-09 16:44:00,
2013-04-09 12:49:00,42.0,42.0,29.58,SE,135,2.0,8.0,99,0.18,,,0.35,Rainwise IP-100,2013-04-09 16:49:00,
2013-04-09 12:54:00,42.0,42.0,29.59,East,90,4.0,6.0,100,0.12,,,0.35,Rainwise IP-100,2013-04-09 16:54:00,
2013-04-09 12:59:00,42.0,42.0,29.59,SE,135,2.0,10.0,100,0.06,,,0.35,Rainwise IP-100,2013-04-09 16:59:00,
2013-04-09 13:04:00,42.0,42.0,29.60,SE,135,3.0,6.0,100,0.00,,,0.35,Rainwise IP-100,2013-04-09 17:04:00,
2013-04-09 13:09:00,42.0,42.0,29.60,SSE,157,0.0,5.0,100,0.00,,,0.35,Rainwise IP-100,2013-04-09 17:09:00,
2013-04-09 13:14:00,42.0,42.0,29.61,SSE,157,2.0,3.0,100,0.00,,,0.35,Rainwise IP-100,2013-04-09 17:14:00,
2013-04-09 13:19:00,42.0,42.0,29.61,East,90,6.0,6.0,100,0.06,,,0.36,Rainwise IP-100,2013-04-09 17:19:00,
2013-04-09 13:21:00,42.0,42.0,29.61,East,90,1.0,6.0,99,0.06,,,0.36,Rainwise IP-100,2013-04-09 17:21:00,
2013-04-09 13:24:00,42.0,42.0,29.61,East,90,6.0,6.0,100,0.06,,,0.36,Rainwise IP-100,2013-04-09 17:24:00,
2013-04-09 13:26:00,42.0,42.0,29.61,SE,135,7.0,9.0,100,0.06,,,0.36,Rainwise IP-100,2013-04-09 17:26:00,
2013-04-09 13:31:00,42.0,42.0,29.59,SSE,157,5.0,10.0,99,0.00,,,0.36,Rainwise IP-100,2013-04-09 17:31:00,
2013-04-09 13:36:00,42.0,42.0,29.59,ESE,112,7.0,8.0,100,0.00,,,0.36,Rainwise IP-100,2013-04-09 17:36:00,
2013-04-09 13:37:00,42.0,42.0,29.59,ENE,67,5.0,8.0,100,0.00,,,0.36,Rainwise IP-100,2013-04-09 17:37:00,
2013-04-09 13:41:00,42.0,42.0,29.58,East,90,5.0,10.0,99,0.00,,,0.36,Rainwise IP-100,2013-04-09 17:41:00,
2013-04-09 13:46:00,42.0,42.0,29.58,SE,135,5.0,9.0,100,0.00,,,0.36,Rainwise IP-100,2013-04-09 17:46:00,
2013-04-09 13:51:00,42.0,42.0,29.58,ESE,112,5.0,10.0,99,0.00,,,0.36,Rainwise IP-100,2013-04-09 17:51:00,
2013-04-09 13:56:00,42.0,42.0,29.58,ESE,112,4.0,9.0,100,0.00,,,0.36,Rainwise IP-100,2013-04-09 17:56:00,
2013-04-09 13:59:00,42.0,42.0,29.58,ESE,112,4.0,9.0,100,0.00,,,0.36,Rainwise IP-100,2013-04-09 17:59:00,
2013-04-09 14:04:00,42.0,42.0,29.59,ESE,112,10.0,10.0,100,0.06,,,0.37,Rainwise IP-100,2013-04-09 18:04:00,
2013-04-09 14:09:00,42.0,42.0,29.59,ESE,112,2.0,11.0,100,0.06,,,0.37,Rainwise IP-100,2013-04-09 18:09:00,
2013-04-09 14:14:00,42.0,42.0,29.60,East,90,6.0,9.0,100,0.00,,,0.37,Rainwise IP-100,2013-04-09 18:14:00,
2013-04-09 14:19:00,42.0,42.0,29.60,ESE,112,6.0,9.0,100,0.00,,,0.37,Rainwise IP-100,2013-04-09 18:19:00,
2013-04-09 14:21:00,42.0,42.0,29.59,ENE,67,7.0,9.0,100,0.00,,,0.37,Rainwise IP-100,2013-04-09 18:21:00,
2013-04-09 14:26:00,42.0,42.0,29.59,ENE,67,7.0,10.0,100,0.00,,,0.37,Rainwise IP-100,2013-04-09 18:26:00,
2013-04-09 14:27:00,42.0,42.0,29.59,ENE,67,7.0,11.0,100,0.00,,,0.37,Rainwise IP-100,2013-04-09 18:27:00,
2013-04-09 14:31:00,42.0,42.0,29.61,ESE,112,6.0,11.0,100,0.00,,,0.37,Rainwise IP-100,2013-04-09 18:31:00,
2013-04-09 14:36:00,42.0,42.0,29.61,NE,45,5.0,9.0,100,0.00,,,0.37,Rainwise IP-100,2013-04-09 18:36:00,
2013-04-09 14:41:00,42.0,42.0,29.59,ESE,112,5.0,8.0,100,0.00,,,0.37,Rainwise IP-100,2013-04-09 18:41:00,
2013-04-09 14:46:00,42.0,42.0,29.59,SE,135,6.0,11.0,100,0.00,,,0.37,Rainwise IP-100,2013-04-09 18:46:00,
2013-04-09 14:51:00,42.0,42.0,29.57,ENE,67,7.0,11.0,100,0.00,,,0.37,Rainwise IP-100,2013-04-09 18:51:00,
2013-04-09 14:56:00,42.0,42.0,29.57,ENE,67,4.0,10.0,100,0.00,,,0.37,Rainwise IP-100,2013-04-09 18:56:00,
2013-04-09 15:01:00,42.0,42.0,29.60,SE,135,3.0,7.0,100,0.00,,,0.37,Rainwise IP-100,2013-04-09 19:01:00,
2013-04-09 15:06:00,41.0,41.0,29.60,ENE,67,6.0,9.0,99,0.00,,,0.37,Rainwise IP-100,2013-04-09 19:06:00,
2013-04-09 15:09:00,41.0,41.0,29.60,ESE,112,3.0,9.0,99,0.00,,,0.37,Rainwise IP-100,2013-04-09 19:09:00,
2013-04-09 15:14:00,42.0,42.0,29.59,ENE,67,8.0,12.0,100,0.00,,,0.37,Rainwise IP-100,2013-04-09 19:14:00,
2013-04-09 15:19:00,42.0,42.0,29.59,NE,45,6.0,13.0,100,0.00,,,0.37,Rainwise IP-100,2013-04-09 19:19:00,
2013-04-09 15:24:00,42.0,42.0,29.59,ENE,67,3.0,10.0,100,0.00,,,0.37,Rainwise IP-100,2013-04-09 19:24:00,
2013-04-09 15:29:00,42.0,42.0,29.59,NE,45,2.0,11.0,100,0.00,,,0.37,Rainwise IP-100,2013-04-09 19:29:00,
2013-04-09 15:34:00,41.0,41.0,29.60,East,90,6.0,10.0,99,0.00,,,0.37,Rainwise IP-100,2013-04-09 19:34:00,
2013-04-09 15:36:00,41.0,41.0,29.60,NE,45,8.0,10.0,99,0.00,,,0.37,Rainwise IP-100,2013-04-09 19:36:00,
2013-04-09 15:39:00,41.0,41.0,29.60,ENE,67,6.0,8.0,99,0.00,,,0.37,Rainwise IP-100,2013-04-09 19:39:00,
2013-04-09 15:44:00,41.0,41.0,29.59,ENE,67,7.0,11.0,99,0.00,,,0.37,Rainwise IP-100,2013-04-09 19:44:00,
2013-04-09 15:49:00,42.0,42.0,29.59,East,90,6.0,13.0,100,0.00,,,0.37,Rainwise IP-100,2013-04-09 19:49:00,
2013-04-09 15:54:00,42.0,42.0,29.59,NE,45,4.0,12.0,100,0.00,,,0.37,Rainwise IP-100,2013-04-09 19:54:00,
2013-04-09 15:59:00,41.0,41.0,29.59,ESE,112,11.0,15.0,99,0.00,,,0.37,Rainwise IP-100,2013-04-09 19:59:00,
2013-04-09 16:01:00,42.0,42.0,29.58,NE,45,5.0,14.0,100,0.00,,,0.37,Rainwise IP-100,2013-04-09 20:01:00,
2013-04-09 16:06:00,41.0,41.0,29.58,SE,135,8.0,10.0,99,0.00,,,0.37,Rainwise IP-100,2013-04-09 20:06:00,
2013-04-09 16:11:00,42.0,42.0,29.59,ESE,112,9.0,12.0,100,0.00,,,0.37,Rainwise IP-100,2013-04-09 20:11:00,
2013-04-09 16:16:00,41.0,41.0,29.59,ESE,112,4.0,10.0,99,0.00,,,0.37,Rainwise IP-100,2013-04-09 20:16:00,
2013-04-09 16:19:00,41.0,41.0,29.59,ESE,112,10.0,10.0,99,0.00,,,0.37,Rainwise IP-100,2013-04-09 20:19:00,
2013-04-09 16:24:00,41.0,41.0,29.59,ENE,67,5.0,10.0,99,0.00,,,0.37,Rainwise IP-100,2013-04-09 20:24:00,
2013-04-09 16:29:00,41.0,41.0,29.59,East,90,3.0,14.0,99,0.00,,,0.37,Rainwise IP-100,2013-04-09 20:29:00,
2013-04-09 16:32:00,41.0,41.0,29.59,ESE,112,3.0,14.0,99,0.00,,,0.37,Rainwise IP-100,2013-04-09 20:32:00,
2013-04-09 16:34:00,41.0,41.0,29.59,SSE,157,4.0,9.0,99,0.00,,,0.37,Rainwise IP-100,2013-04-09 20:34:00,
2013-04-09 16:39:00,41.0,41.0,29.59,ESE,112,1.0,9.0,99,0.00,,,0.37,Rainwise IP-100,2013-04-09 20:39:00,
2013-04-09 16:41:00,41.0,41.0,29.59,East,90,2.0,9.0,99,0.00,,,0.37,Rainwise IP-100,2013-04-09 20:41:00,
2013-04-09 16:46:00,41.0,41.0,29.59,East,90,3.0,7.0,99,0.00,,,0.37,Rainwise IP-100,2013-04-09 20:46:00,
2013-04-09 16:49:00,41.0,41.0,29.59,East,90,9.0,11.0,99,0.00,,,0.37,Rainwise IP-100,2013-04-09 20:49:00,
2013-04-09 16:54:00,41.0,41.0,29.60,ESE,112,8.0,10.0,99,0.00,,,0.37,Rainwise IP-100,2013-04-09 20:54:00,
2013-04-09 16:59:00,41.0,41.0,29.60,ESE,112,3.0,10.0,99,0.00,,,0.37,Rainwise IP-100,2013-04-09 20:59:00,
2013-04-09 17:04:00,41.0,41.0,29.61,East,90,0.0,5.0,99,0.00,,,0.37,Rainwise IP-100,2013-04-09 21:04:00,
2013-04-09 17:06:00,41.0,41.0,29.61,East,90,0.0,3.0,99,0.00,,,0.37,Rainwise IP-100,2013-04-09 21:06:00,
2013-04-09 17:11:00,41.0,41.0,29.62,ESE,112,3.0,5.0,99,0.00,,,0.37,Rainwise IP-100,2013-04-09 21:11:00,
2013-04-09 17:15:00,41.0,41.0,29.62,ESE,112,0.0,5.0,100,0.00,,,0.37,Rainwise IP-100,2013-04-09 21:15:00,
2013-04-09 17:16:00,41.0,41.0,29.62,WSW,247,3.0,5.0,100,0.00,,,0.37,Rainwise IP-100,2013-04-09 21:16:00,
2013-04-09 17:19:00,41.0,41.0,29.62,WSW,247,0.0,3.0,99,0.00,,,0.37,Rainwise IP-100,2013-04-09 21:19:00,
2013-04-09 17:24:00,41.0,41.0,29.62,NE,45,2.0,4.0,99,0.00,,,0.37,Rainwise IP-100,2013-04-09 21:24:00,
2013-04-09 17:29:00,41.0,41.0,29.62,NE,45,1.0,5.0,99,0.00,,,0.37,Rainwise IP-100,2013-04-09 21:29:00,
2013-04-09 17:31:00,41.0,41.0,29.62,ENE,67,4.0,5.0,99,0.00,,,0.37,Rainwise IP-100,2013-04-09 21:31:00,
2013-04-09 17:36:00,41.0,41.0,29.64,SSE,157,0.0,5.0,99,0.00,,,0.37,Rainwise IP-100,2013-04-09 21:36:00,
2013-04-09 17:41:00,41.0,41.0,29.64,East,90,3.0,5.0,100,0.00,,,0.37,Rainwise IP-100,2013-04-09 21:41:00,
2013-04-09 17:44:00,41.0,41.0,29.64,East,90,2.0,5.0,99,0.00,,,0.37,Rainwise IP-100,2013-04-09 21:44:00,
2013-04-09 17:49:00,41.0,41.0,29.64,SE,135,3.0,4.0,99,0.00,,,0.37,Rainwise IP-100,2013-04-09 21:49:00,
2013-04-09 17:54:00,41.0,41.0,29.63,SE,135,2.0,4.0,99,0.00,,,0.37,Rainwise IP-100,2013-04-09 21:54:00,
2013-04-09 17:59:00,41.0,41.0,29.63,SE,135,0.0,2.0,100,0.00,,,0.37,Rainwise IP-100,2013-04-09 21:59:00,
2013-04-09 18:04:00,41.0,41.0,29.63,SE,135,0.0,3.0,99,0.00,,,0.37,Rainwise IP-100,2013-04-09 22:04:00,
2013-04-09 18:06:00,41.0,41.0,29.63,SE,135,0.0,3.0,100,0.00,,,0.37,Rainwise IP-100,2013-04-09 22:06:00,
2013-04-09 18:11:00,41.0,41.0,29.63,SE,135,0.0,2.0,100,0.00,,,0.37,Rainwise IP-100,2013-04-09 22:11:00,
2013-04-09 18:12:00,41.0,41.0,29.63,SE,135,0.0,2.0,100,0.00,,,0.37,Rainwise IP-100,2013-04-09 22:12:00,
2013-04-09 18:14:00,41.0,41.0,29.63,SE,135,1.0,3.0,99,0.00,,,0.37,Rainwise IP-100,2013-04-09 22:14:00,
2013-04-09 18:19:00,41.0,41.0,29.63,SW,225,3.0,3.0,100,0.00,,,0.37,Rainwise IP-100,2013-04-09 22:19:00,
2013-04-09 18:24:00,41.0,41.0,29.64,South,180,4.0,5.0,100,0.00,,,0.37,Rainwise IP-100,2013-04-09 22:24:00,
2013-04-09 18:29:00,41.0,41.0,29.64,South,180,4.0,5.0,100,0.00,,,0.37,Rainwise IP-100,2013-04-09 22:29:00,
2013-04-09 18:34:00,41.0,41.0,29.63,SSE,157,3.0,5.0,100,0.00,,,0.37,Rainwise IP-100,2013-04-09 22:34:00,
2013-04-09 18:37:00,41.0,41.0,29.63,South,180,2.0,5.0,100,0.00,,,0.37,Rainwise IP-100,2013-04-09 22:37:00,
2013-04-09 18:39:00,41.0,41.0,29.63,South,180,3.0,5.0,100,0.00,,,0.37,Rainwise IP-100,2013-04-09 22:39:00,
2013-04-09 18:44:00,41.0,41.0,29.63,South,180,4.0,5.0,100,0.00,,,0.37,Rainwise IP-100,2013-04-09 22:44:00,
2013-04-09 18:46:00,41.0,41.0,29.63,SSW,202,3.0,5.0,100,0.00,,,0.37,Rainwise IP-100,2013-04-09 22:46:00,
2013-04-09 18:51:00,41.0,41.0,29.63,SSE,157,2.0,4.0,100,0.00,,,0.37,Rainwise IP-100,2013-04-09 22:51:00,
2013-04-09 18:56:00,41.0,41.0,29.62,SE,135,3.0,5.0,100,0.00,,,0.37,Rainwise IP-100,2013-04-09 22:56:00,
2013-04-09 19:01:00,41.0,41.0,29.62,SSE,157,4.0,4.0,99,0.00,,,0.37,Rainwise IP-100,2013-04-09 23:01:00,
2013-04-09 19:06:00,41.0,41.0,29.62,SSW,202,1.0,5.0,100,0.00,,,0.37,Rainwise IP-100,2013-04-09 23:06:00,
2013-04-09 19:11:00,41.0,41.0,29.64,SE,135,2.0,4.0,99,0.00,,,0.37,Rainwise IP-100,2013-04-09 23:11:00,
2013-04-09 19:16:00,41.0,41.0,29.64,SSE,157,3.0,3.0,100,0.00,,,0.37,Rainwise IP-100,2013-04-09 23:16:00,
2013-04-09 19:21:00,41.0,41.0,29.64,South,180,2.0,4.0,100,0.00,,,0.37,Rainwise IP-100,2013-04-09 23:21:00,
2013-04-09 19:44:00,41.0,41.0,29.68,West,270,1.0,0.0,100,0.00,,,0.38,Rainwise IP-100,2013-04-09 23:44:00,
2013-04-09 19:46:00,41.0,41.0,29.68,West,270,3.0,4.0,100,0.06,,,0.38,Rainwise IP-100,2013-04-09 23:46:00,
2013-04-09 19:51:00,41.0,41.0,29.68,West,270,2.0,4.0,100,0.06,,,0.38,Rainwise IP-100,2013-04-09 23:51:00,
2013-04-09 19:52:00,41.0,41.0,29.67,West,270,0.0,4.0,100,0.06,,,0.38,Rainwise IP-100,2013-04-09 23:52:00,
2013-04-09 19:57:00,41.0,41.0,29.67,West,270,0.0,2.0,100,0.00,,,0.38,Rainwise IP-100,2013-04-09 23:57:00,
2013-04-09 20:02:00,41.0,41.0,29.68,West,270,0.0,0.0,100,0.00,,,0.38,Rainwise IP-100,2013-04-10 00:02:00,
2013-04-09 20:07:00,41.0,41.0,29.68,West,270,0.0,0.0,100,0.00,,,0.38,Rainwise IP-100,2013-04-10 00:07:00,
2013-04-09 20:12:00,41.0,41.0,29.69,West,270,0.0,0.0,100,0.00,,,0.38,Rainwise IP-100,2013-04-10 00:12:00,
2013-04-09 20:17:00,41.0,41.0,29.69,West,270,0.0,0.0,100,0.00,,,0.38,Rainwise IP-100,2013-04-10 00:17:00,
2013-04-09 20:21:00,41.0,41.0,29.68,West,270,0.0,0.0,100,0.00,,,0.38,Rainwise IP-100,2013-04-10 00:21:00,
2013-04-09 20:26:00,41.0,41.0,29.68,West,270,0.0,0.0,100,0.00,,,0.38,Rainwise IP-100,2013-04-10 00:26:00,
2013-04-09 20:31:00,41.0,41.0,29.68,West,270,0.0,0.0,100,0.00,,,0.38,Rainwise IP-100,2013-04-10 00:31:00,
2013-04-09 20:36:00,41.0,41.0,29.68,West,270,0.0,2.0,100,0.00,,,0.38,Rainwise IP-100,2013-04-10 00:36:00,
2013-04-09 20:37:00,41.0,41.0,29.68,West,270,0.0,2.0,100,0.00,,,0.38,Rainwise IP-100,2013-04-10 00:37:00,
2013-04-09 20:42:00,41.0,41.0,29.68,West,270,0.0,0.0,100,0.00,,,0.38,Rainwise IP-100,2013-04-10 00:42:00,
2013-04-09 20:46:00,40.0,40.0,29.68,West,270,0.0,0.0,100,0.00,,,0.38,Rainwise IP-100,2013-04-10 00:46:00,
2013-04-09 20:51:00,41.0,41.0,29.68,West,270,0.0,0.0,100,0.00,,,0.38,Rainwise IP-100,2013-04-10 00:51:00,
2013-04-09 20:56:00,41.0,41.0,29.68,West,270,3.0,3.0,100,0.00,,,0.38,Rainwise IP-100,2013-04-10 00:56:00,
2013-04-09 21:01:00,41.0,41.0,29.69,West,270,1.0,4.0,100,0.00,,,0.38,Rainwise IP-100,2013-04-10 01:01:00,
2013-04-09 21:06:00,41.0,41.0,29.69,West,270,3.0,5.0,100,0.00,,,0.38,Rainwise IP-100,2013-04-10 01:06:00,
2013-04-09 21:11:00,41.0,41.0,29.70,WSW,247,3.0,5.0,100,0.00,,,0.38,Rainwise IP-100,2013-04-10 01:11:00,
2013-04-09 21:16:00,41.0,41.0,29.70,West,270,3.0,5.0,100,0.00,,,0.38,Rainwise IP-100,2013-04-10 01:16:00,
2013-04-09 21:21:00,41.0,41.0,29.70,West,270,0.0,3.0,100,0.00,,,0.38,Rainwise IP-100,2013-04-10 01:21:00,
2013-04-09 21:26:00,41.0,41.0,29.70,West,270,0.0,3.0,100,0.00,,,0.38,Rainwise IP-100,2013-04-10 01:26:00,
2013-04-09 21:31:00,41.0,41.0,29.69,West,270,0.0,0.0,100,0.00,,,0.38,Rainwise IP-100,2013-04-10 01:31:00,
2013-04-09 21:36:00,40.0,40.0,29.69,West,270,0.0,0.0,100,0.00,,,0.38,Rainwise IP-100,2013-04-10 01:36:00,
2013-04-09 21:41:00,41.0,41.0,29.69,West,270,2.0,2.0,100,0.00,,,0.38,Rainwise IP-100,2013-04-10 01:41:00,
2013-04-09 21:46:00,40.0,40.0,29.69,West,270,3.0,3.0,100,0.00,,,0.38,Rainwise IP-100,2013-04-10 01:46:00,
2013-04-09 21:51:00,41.0,41.0,29.70,West,270,2.0,4.0,100,0.00,,,0.38,Rainwise IP-100,2013-04-10 01:51:00,
2013-04-09 21:56:00,40.0,40.0,29.70,West,270,3.0,3.0,100,0.00,,,0.38,Rainwise IP-100,2013-04-10 01:56:00,
2013-04-09 22:01:00,40.0,40.0,29.70,West,270,1.0,4.0,100,0.00,,,0.38,Rainwise IP-100,2013-04-10 02:01:00,
2013-04-09 22:07:00,40.0,40.0,29.70,West,270,0.0,3.0,100,0.00,,,0.38,Rainwise IP-100,2013-04-10 02:07:00,
2013-04-09 22:12:00,41.0,41.0,29.69,West,270,0.0,3.0,100,0.00,,,0.38,Rainwise IP-100,2013-04-10 02:12:00,
2013-04-09 22:16:00,40.0,40.0,29.69,West,270,0.0,0.0,100,0.00,,,0.38,Rainwise IP-100,2013-04-10 02:16:00,
2013-04-09 22:21:00,41.0,41.0,29.69,West,270,0.0,0.0,100,0.00,,,0.38,Rainwise IP-100,2013-04-10 02:21:00,
2013-04-09 22:26:00,40.0,40.0,29.69,West,270,0.0,0.0,100,0.00,,,0.38,Rainwise IP-100,2013-04-10 02:26:00,
2013-04-09 22:31:00,41.0,41.0,29.69,West,270,0.0,0.0,100,0.00,,,0.38,Rainwise IP-100,2013-04-10 02:31:00,
2013-04-09 22:36:00,40.0,40.0,29.69,West,270,0.0,0.0,100,0.00,,,0.38,Rainwise IP-100,2013-04-10 02:36:00,
2013-04-09 22:41:00,41.0,41.0,29.68,West,270,0.0,0.0,100,0.00,,,0.38,Rainwise IP-100,2013-04-10 02:41:00,
2013-04-09 22:46:00,40.0,40.0,29.68,West,270,0.0,1.0,100,0.00,,,0.38,Rainwise IP-100,2013-04-10 02:46:00,
2013-04-09 22:51:00,41.0,41.0,29.68,West,270,0.0,2.0,100,0.00,,,0.38,Rainwise IP-100,2013-04-10 02:51:00,
2013-04-09 22:56:00,40.0,40.0,29.68,West,270,1.0,1.0,100,0.00,,,0.38,Rainwise IP-100,2013-04-10 02:56:00,
2013-04-09 23:01:00,41.0,41.0,29.68,West,270,0.0,3.0,100,0.00,,,0.38,Rainwise IP-100,2013-04-10 03:01:00,
2013-04-09 23:06:00,40.0,40.0,29.68,West,270,0.0,0.0,100,0.00,,,0.38,Rainwise IP-100,2013-04-10 03:06:00,
2013-04-09 23:11:00,41.0,41.0,29.67,SW,225,1.0,2.0,100,0.00,,,0.38,Rainwise IP-100,2013-04-10 03:11:00,
2013-04-09 23:16:00,40.0,40.0,29.67,West,270,1.0,5.0,100,0.00,,,0.38,Rainwise IP-100,2013-04-10 03:16:00,
2013-04-09 23:21:00,41.0,41.0,29.68,West,270,1.0,4.0,100,0.00,,,0.38,Rainwise IP-100,2013-04-10 03:21:00,
2013-04-09 23:26:00,40.0,40.0,29.68,West,270,1.0,4.0,100,0.00,,,0.38,Rainwise IP-100,2013-04-10 03:26:00,
2013-04-09 23:31:00,40.0,40.0,29.67,West,270,1.0,3.0,100,0.00,,,0.38,Rainwise IP-100,2013-04-10 03:31:00,
2013-04-09 23:36:00,40.0,40.0,29.67,West,270,2.0,3.0,100,0.00,,,0.38,Rainwise IP-100,2013-04-10 03:36:00,
2013-04-09 23:37:00,40.0,40.0,29.67,West,270,1.0,3.0,100,0.00,,,0.38,Rainwise IP-100,2013-04-10 03:37:00,
2013-04-09 23:41:00,40.0,40.0,29.68,West,270,0.0,3.0,100,0.00,,,0.38,Rainwise IP-100,2013-04-10 03:41:00,
2013-04-09 23:46:00,40.0,40.0,29.68,West,270,0.0,2.0,100,0.00,,,0.38,Rainwise IP-100,2013-04-10 03:46:00,
2013-04-09 23:51:00,40.0,40.0,29.68,WSW,247,3.0,3.0,100,0.00,,,0.38,Rainwise IP-100,2013-04-10 03:51:00,
2013-04-09 23:56:00,40.0,40.0,29.67,WSW,247,0.0,3.0,100,0.00,,,0.38,Rainwise IP-100,2013-04-10 03:56:00,